Location: Stilling
(56.0622°N, 9.9882°E)
Time: 00:33:46
(UTC+00:00)

Cosmos 44 - Pass Details

Date: 13 July 2020
Orbit: 587 x 775 km, 65.1° (Epoch: 03 August)

Event Time Altitude Azimuth Distance (km) Brightness Sun altitude
Rises 21:54:15 0° 228° (SW) 2,821 6.2 -9.9°
Reaches altitude 10° 21:56:27 10° 229° (SW) 1,934 5.4 -10.0°
Maximum altitude 22:00:48 86° 317° (NW) 621 3.1 -10.2°
Drops below altitude 10° 22:05:23 10° 48° (NE) 2,026 6.0 -10.4°
Sets 22:07:44 0° 49° (NE) 2,968 6.9 -10.5°
